EW0413 Weather Reports


time (UTC)temp
C
wind
direction
speed
KPH
gust
KPH
rain 1hr
cm
rain 24hr
cm
rain mn
cm
humidity
%
barometer
mb
20260503213028 16 155 11.3 30.6 0.00 0.08 0.08 58 1006.5
20260503211506 17 158 9.7 24.1 0.00 0.08 0.08 58 1006.7
20260503210005 17 188 12.9 24.1 0.00 0.08 0.08 56 1007.0
20260503204603 17 141 12.9 29.0 0.00 0.08 0.08 55 1007.3
20260503203043 17 172 12.9 27.4 0.00 0.08 0.08 56 1007.6
20260503201543 17 210 9.7 29.0 0.00 0.08 0.08 55 1007.7
20260503200022 17 143 16.1 32.2 0.03 0.08 0.08 54 1007.8
20260503194521 17 171 11.3 27.4 0.03 0.08 0.08 55 1007.9
20260503193101 17 175 14.5 29.0 0.03 0.08 0.08 57 1008.4
20260503191556 17 177 12.9 25.7 0.03 0.08 0.08 58 1008.8
20260503190042 16 224 9.7 27.4 0.00 0.05 0.05 60 1008.8
20260503184537 16 200 9.7 24.1 0.00 0.05 0.05 62 1009.2
20260503183013 15 150 8.0 17.7 0.00 0.05 0.05 67 1009.8
20260503181507 13 128 3.2 11.3 0.00 0.05 0.05 69 1010.4
20260503180047 12 170 4.8 14.5 0.00 0.05 0.05 74 1011.1
20260503174601 11 188 4.8 17.7 0.03 0.05 0.05 77 1011.5
20260503173025 11 186 3.2 6.4 0.03 0.05 0.05 82 1012.2
20260503171523 11 129 1.6 8.0 0.05 0.05 0.05 81 1011.9
20260503081550 2 164 0.0 0.0 0.00 0.00 0.00 86 1014.0
20260503071511 3 164 0.0 0.0 0.00 0.00 0.00 82 1014.2
20260503054514 3 164 0.0 0.0 0.00 0.00 0.00 83 1015.0
20260503053047 4 164 0.0 1.6 0.00 0.00 0.00 82 1015.0
20260503051546 4 163 0.0 1.6 0.00 0.00 0.00 83 1015.2
20260503050043 4 162 0.0 1.6 0.00 0.00 0.00 83 1015.2
20260503044547 4 146 0.0 0.0 0.00 0.00 0.00 83 1015.2
20260503043042 4 145 0.0 0.0 0.00 0.00 0.00 83 1015.2
20260503041540 4 145 0.0 0.0 0.00 0.00 0.00 82 1015.2
20260503040039 5 145 0.0 0.0 0.00 0.00 0.00 82 1015.3
20260503034552 5 145 0.0 1.6 0.00 0.00 0.00 82 1015.2
20260503033027 5 150 0.0 0.0 0.00 0.00 0.00 82 1015.2
20260503031521 4 148 0.0 0.0 0.00 0.00 0.00 85 1015.4
20260503030002 4 270 0.0 0.0 0.00 0.00 0.00 83 1015.4
20260503024501 4 270 0.0 0.0 0.00 0.00 0.00 83 1015.4
20260503023050 5 270 0.0 0.0 0.00 0.00 0.00 82 1015.4
20260503021549 5 270 0.0 0.0 0.00 0.00 0.00 80 1015.3
20260503020049 5 270 0.0 0.0 0.00 0.00 0.00 79 1015.3
20260503014602 6 270 0.0 0.0 0.00 0.00 0.00 78 1015.2
20260503013047 7 270 0.0 0.0 0.00 0.00 0.00 79 1015.1
20260503011548 7 270 0.0 0.0 0.00 0.00 0.00 78 1015.1
20260503010046 8 269 0.0 0.0 0.00 0.00 0.00 75 1015.1
20260503004545 8 270 0.0 0.0 0.00 0.00 0.00 67 1015.0
20260503003041 9 270 0.0 0.0 0.00 0.00 0.00 63 1015.1
20260503001547 10 270 0.0 0.0 0.00 0.00 0.00 60 1015.1
20260503000008 11 270 0.0 0.0 0.00 0.00 0.00 59 1015.1
20260502234507 11 270 0.0 0.0 0.00 0.00 0.00 57 1015.1
20260502233106 12 270 0.0 3.2 0.00 0.00 0.00 54 1015.3
20260502231555 12 306 0.0 4.8 0.00 0.00 0.00 52 1015.3
20260502230053 13 289 1.6 11.3 0.00 0.00 0.00 51 1015.4
20260502224550 12 304 8.0 16.1 0.00 0.00 0.00 53 1015.4
20260502223050 12 203 0.0 9.7 0.00 0.00 0.00 50 1015.4
20260502221549 12 304 6.4 14.5 0.00 0.00 0.00 50 1015.4
20260502220049 12 290 9.7 20.9 0.00 0.00 0.00 47 1015.4
20260502214558 12 304 6.4 17.7 0.00 0.00 0.00 47 1015.4